星链-37274(STARLINK-37274)

导读

STARLINK-37274(NORAD编号68724)是美国SpaceX公司星链(Starlink)低轨互联网星座的一颗卫星,属于星链全球卫星互联网组网计划的组成部分。星链计划旨在构建覆盖全球的天基高速互联网系统,该卫星运行在近地轨道,为全球偏远地区、海洋等传统网络覆盖盲区提供低成本宽带接入服务,同时支撑部分特殊场景下的通信需求,助力SpaceX完成星座规模组网,推动低轨卫星通信商业化落地,目前该卫星已完成发射并在轨运行。

Basic Information
目录编号:
68724
目录名称:
STARLINK-37274
国际标识:
2026-081AB
轨道中心:
EARTH
卫星名称:
星链-37274
卫星全名:
星链-37274(STARLINK-37274)
卫星状态:
在轨 (已飞行144 天)
发射日期:
2026-04-14 UTC
国别 :
美国 (US)
星等 :
--
Orbit Information
数据来源 国际轨道数据
星历时间: 2026-09-05T19:10:57+0800
7小时前
查看轨道信息
半长轴: 6840.854km
偏心率: 0.0001291
轨道倾角: 53.159°
近地点辐角 68.851°
升交点赤经 275.758°
平近点角 291.263°
近地点: 461.833km
远地点: 463.601km
周期: 93.848分钟
每日圈数: 15.343954
Detailed Information
固有亮度:
5
最大亮度:
2.5
卫星平台:
Starlink V1.0
覆盖范围:
全球
运营商:
太空探索技术公司
运营商所在国:
美国
制造商(研发单位):
太空探索技术公司
制造商所在国:
美国
使用方式:
暂无
Satellite Introduction
Starlink 计划是 SpaceX 推出的全球卫星互联网项目,通过发射低轨道卫星,为全球尤其是偏远地区提供高速、低延迟的互联网服务。自 2019 年起,Starlink 已部署数千颗卫星,旨在缩小全球数字鸿沟,推动互联网普及。该项目还为军事、航空等行业提供通信支持,带来广泛经济效益。
2D Orbit Map
3D Orbit Map
Orbit Altitude Analysis Chart
Orbit Inclination Analysis Chart
Orbit Comprehensive Analysis Chart
View Comprehensive Chart
Conjunction Data List
Event ID Objects TCA Miss Dist (km) Collision Risk Probability Collision Risk Index (CRI) Action
CDM_260907-232105-237706-872421
2026-09-07T
23:21:40+0000
1.144 km
极远距离
1.487125E-5 中风险 0.58
CDM_260906-092506-589306-872421
2026-09-06T
09:25:48+0000
0.965 km
远距离
8.178423E-6 低风险 0.53
CDM_260906-070506-589306-872421
2026-09-06T
07:05:06+0000
1.002 km
极远距离
7.18584E-6 低风险 0.52
CDM_260907-010705-199106-872422
2026-09-07T
01:07:00+0000
1.193 km
极远距离
4.271453E-6 低风险 0.48
CDM_260907-032705-199106-872423
2026-09-07T
03:27:41+0000
1.359 km
极远距离
2.789338E-6 低风险 0.44
CDM_260906-053106-589306-872421
2026-09-06T
05:31:19+0000
1.377 km
极远距离
2.503135E-6 低风险 0.43
CDM_260908-033106-178706-872421
2026-09-08T
03:31:23+0000
2.872 km
极远距离
1.378841E-6 低风险 0.38
CDM_260905-185305-315806-872421
2026-09-05T
18:53:48+0000
2.988 km
极远距离
1.184223E-6 低风险 0.36
CDM_260907-050105-199106-872422
2026-09-07T
05:01:29+0000
2.004 km
极远距离
9.598482E-7 极低风险 0.35
CDM_260906-075206-589306-872421
2026-09-06T
07:52:00+0000
2.015 km
极远距离
8.945417E-7 极低风险 0.34